CZ-6A R/B DEB

Satellite information

Favourite Embed

Satellite Type and Status

DEBRISIN ORBIT

Key statistics

Satellite CZ-6A R/B DEB at a glance.

Uptime

280

Days in orbit

Revolutions

≈ 14.2

Per day

Orbit

LEO

Low Earth Orbit

Inclination

89.0

Latest

Satellite identification and parameters

Extended collection of information and parameters for CZ-6A R/B DEB.

Object identification

Identified? True

Debris? True

Object name: CZ-6A R/B DEB

International designator: 2024-140ADM

Object number (NORAD): 63390

Object ID (CCSDS): 63390

Country: PEOPLES REPUBLIC OF CHINA (PRC)

Current information (Y/N): Y

RCS size: SMALL

Orbital parameters

Period: 101.56 minutes

Inclination: 89.011 deg

SMA: 7210.664 km

Apoapsis: 874.088 km

Periapsis: 790.971 km

RAAN: 320.7338 deg

Eccentricy: 0.0057635

Argument of periapsis: 65.5149 deg

Mean anomaly: 295.2035 deg

Mean motion: 14.17881154 rev/day

Mean motion (dot): 0.0000151 rev/day2

B* drag term: 0.00072053 1/REarth

Two-line elements (TLE)

Creation date: May 9, 2025, 2:46 a.m.

Reference frame: TEME

Reference center: EARTH

Epoch: May 8, 2025, 6:58 a.m. UTC

TLE line 0: 0 CZ-6A R/B DEB

TLE line 1: 1 63390U 24140ADM 25128.29073440 .00001510 00000-0 72053-3 0 9996

TLE line 2: 2 63390 89.0110 320.7338 0057635 65.5149 295.2035 14.17881154 5948

Live tracking on map

Real-time ground track for satellite CZ-6A R/B DEB.

In-orbit conjunctions

A list of the most updated potential collisions computed for object CZ-6A R/B DEB.

Target Orbit TCA Probability of collision Miss distance Type
CZ-6A DEB SSO 2025-05-14 00:01:34 0.0003676462 167.0 (m) DEBRIS

Associated space launch

18 Low Earth Orbit communication satellites with Ku, Q and V band payloads for the G60 constellation operated by Shanghai Spacecom Satellite Technology (SSST) with funding backed by the Shanghai local government. Initial constellation will consist of 1296 satellites by 2027 with long term plans to expand it to 12000 satellites.

CZ-6A R/B DEB was lifted into orbit during the mission ‘Long March 6A | G60 Polar Group 01’, on board a Long March 6A space rocket.

The launch took place on Aug. 6, 2024, 6:42 a.m. from Launch Complex 9A.

For more information about the launch, click the button.

Launch to space Long March 6A | G60 Polar Group 01
Long March 6A | G60 Polar Group 01

Agency: N/A

Status: Launch Successful

Launch date: Aug. 6, 2024, 6:42 a.m. UTC

Rocket: Long March 6A

Launch pad: Launch Complex 9A

Location: Taiyuan Satellite Launch Center, People's Republic of China

...

Latest news about this satellite

News about space launch
Brightness of first Chinese broadband constellation satellites alarms astronomers

The first satellites of a Chinese broadband constellation are significantly brighter than those of Western systems, posing a new challenge for astronomers.

News about space launch
Chinese rocket stage breaks up into cloud of more than 700 pieces of space debris

HELSINKI — A Chinese Long March 6A rocket’s upper stage has fragmented into a cloud of over 700 pieces of space debris, adding to concerns about long-term orbital safety. China […]

News about space launch
China's Thousand Sails Megaconstellation Kicks Off with Dangerous Debris Field

China's Thousand Sails Megaconstellation Kicks Off with Dangerous Debris Field


Newsletter sign-up

Weekly statistics, charts and insights to help you stay on top of the space industry.